#timestamp,LO_Frequency,Hit,StdDev 
1522080015.3,286047002.4,N
1522080035.1,286047001.1,N
1522080055.9,286047000.0,N
1522080075.7,286047002.8,N
1522080095.5,286047002.2,N
1522080115.4,286046999.8,N
1522080135.2,286047000.0,N
1522080155.1,286047002.0,N
1522080156.0,286047002.0,N
1522080175.8,286047001.7,N
1522080195.6,286047002.8,N
1522080215.5,286047001.8,N
1522080235.3,286047002.7,N
1522080255.1,286047001.0,N
1522080275.9,286047000.8,N
1522080295.7,286047001.0,N
1522080315.6,286047000.6,N
1522080335.4,286046998.3,N
1522080355.2,286046999.4,N
1522080375.1,286046996.7,N
1522080376.0,286046996.7,N
1522080395.8,286046999.1,N
1522080415.7,286046998.3,N
1522080435.5,286046999.4,N
1522080455.3,286046998.7,N
1522080475.2,286046999.4,N
1522080495.0,286046999.5,N
1522080495.9,286046999.5,N
1522080515.7,286046999.1,N
1522080535.6,286046999.4,N
1522080555.4,286046997.2,N
1522080575.3,286046996.7,N
1522080595.1,286046999.0,N
1522080596.0,286046999.0,N
1522080615.8,286046998.3,N
1522080635.7,286046998.2,N
1522080655.5,286047000.5,N
1522080675.3,286047002.4,N
1522080695.2,286047000.1,N
1522080715.0,286046998.1,N
1522080715.9,286046998.1,N
1522080735.8,286046999.1,N
1522080755.6,286046999.0,N
1522080775.4,286047000.5,N
1522080795.3,286046999.9,N
1522080815.1,286047000.8,N
1522080835.9,286046998.2,N
1522080855.7,286047000.5,N
1522080905.6,286046998.5,E
1522080915.5,286047000.8,N
1522080935.3,286047000.9,P
1522080955.2,286047002.8,P
1522080975.9,286047004.2,Y
1522080995.7,286047002.8,P
1522081015.6,286047004.1,P
1522081035.4,286047002.5,N
1522081055.2,286047000.1,N
1522081075.1,286047002.7,N
1522081076.0,286047002.7,N
1522081095.8,286047000.0,N
1522081115.7,286047000.8,N
1522081135.5,286047001.0,N
1522081155.3,286047000.6,N
1522081175.2,286047000.5,N
1522081195.0,286047000.3,N
1522081195.9,286047000.3,N
1522081215.7,286047000.8,N
1522081235.6,286047011.9,Y
1522081255.4,286046997.0,P
1522081275.3,286046997.4,N
1522081295.1,286046996.5,N
1522081315.8,286046997.0,N
1522081335.7,286046999.0,N
1522081355.5,286046999.1,N
1522081375.4,286046999.2,N
1522081395.2,286046996.7,N
1522081415.0,286046997.1,N
1522081415.9,286046997.1,N
1522081435.8,286046997.4,N
1522081455.6,286046997.7,N
1522081475.4,286046997.7,N
1522081495.3,286046997.6,N
1522081515.1,286046997.0,N
1522081535.9,286046997.3,N
1522081555.7,286046997.4,N
1522081575.5,286046995.0,Y
1522081595.4,286046999.1,P
1522081615.2,286047001.1,N
1522081635.0,286046998.8,N
1522081635.9,286046998.8,N
1522081655.8,286047000.7,N
1522081675.6,286046998.2,N
1522081695.5,286047001.0,N
1522081715.3,286046998.5,N
1522081735.1,286047001.2,N
1522081755.9,286046998.9,N
1522081775.7,286047001.0,N
1522081795.5,286047000.8,N
1522081815.4,286047000.1,N
1522081835.2,286047002.7,N
1522081855.1,286047004.0,N
1522081856.0,286047004.0,N
1522081875.8,286047002.6,N
1522081895.6,286047000.4,N
1522081915.5,286047002.3,N
1522081935.3,286047001.9,N
1522081955.2,286047002.7,N
1522081975.9,286047002.5,N
1522081995.7,286047002.4,N
1522082015.6,286047002.2,N
1522082035.4,286047003.0,N
1522082055.2,286047003.6,N
1522082075.1,286047001.9,N
1522082076.0,286047001.9,N
1522082095.8,286046999.8,N
1522082115.7,286047000.3,N
1522082135.5,286047000.2,N
1522082155.3,286047002.3,N
1522082175.2,286047002.7,N
1522082195.0,286047002.5,N
1522082195.9,286047002.5,N
1522082215.7,286047001.9,N
1522082235.6,286047001.8,N
1522082255.4,286047001.5,N
1522082275.3,286047004.2,Y
1522082295.1,286047001.7,P
1522082296.0,286047001.7,P
1522082315.8,286047004.2,P
1522082335.7,286047004.0,Y
1522082355.5,286047000.9,P
1522082375.4,286047000.3,N
1522082395.2,286046999.9,N
1522082415.0,286047001.1,N
1522082415.9,286047001.1,N
1522082435.8,286046996.8,Y
1522082455.6,286046995.0,P
1522082475.4,286046993.3,N
1522082495.3,286046995.4,N
1522082515.1,286046995.4,N
1522082535.9,286046995.7,N
1522082555.7,286046995.1,N
1522082575.5,286046997.6,N
1522082595.4,286046997.0,N
1522082615.2,286046999.0,N
1522082635.0,286046999.4,N
1522082636.0,286046999.4,N
1522082655.8,286046999.1,N
1522082675.6,286046996.7,N
1522082695.5,286046997.0,N
1522082715.3,286046998.6,N
1522082735.1,286046999.0,N
1522082755.9,286046999.0,N
1522082775.7,286046995.0,N
1522082795.6,286046997.0,N
1522082815.4,286046997.1,N
1522082835.2,286046995.1,N
1522082855.1,286046997.5,N
1522082856.0,286046997.5,N
1522082875.8,286046999.6,N
1522082895.6,286046998.3,N
1522082915.5,286046999.6,N
1522082935.3,286046995.4,N
1522082955.2,286046997.8,N
1522082975.9,286046997.5,N
1522082995.7,286046995.0,N
1522083015.6,286046996.3,N
1522083035.4,286046995.1,N
1522083055.2,286046994.2,Y
1522083075.1,286046997.5,P
1522083076.0,286046997.5,P
1522083095.8,286046995.6,P
1522083115.7,286046997.6,Y
1522083135.5,286046998.1,P
1522083155.3,286046998.7,N
1522083175.2,286046996.7,P
1522083195.0,286046996.6,Y
1522083195.9,286046996.6,P
1522083215.8,286047000.2,N
1522083235.6,286047002.6,N
1522083255.4,286046999.9,N
1522083275.3,286047000.2,N
1522083295.1,286046998.2,N
1522083315.8,286047000.6,N
1522083335.7,286047000.9,N
1522083355.5,286046998.9,N
1522083375.4,286046998.5,N
1522083395.2,286047001.2,N
1522083415.0,286046998.2,N
1522083415.9,286046998.2,N
1522083435.8,286047001.0,N
1522083455.6,286046999.2,N
1522083475.5,286046996.7,N
1522083495.3,286046995.4,N
1522083515.1,286046996.1,N
1522083535.9,286046995.8,N
1522083555.7,286046996.0,N
1522083575.5,286046994.0,N
1522083595.4,286046994.2,N
